Time,TemperatureF,DewpointF,PressureIn,WindDirection,WindDirectionDegrees,WindSpeedMPH,WindSpeedGustMPH,Humidity,HourlyPrecipIn,Conditions,Clouds,dailyrainin,SolarRadiationWatts/m^2,SoftwareType,DateUTC
2013-05-01 00:01:00,46.7,33.1,30.33,North,0,0.0,0.0,59,0.00,CLR,,0.00,0.0,WeatherDisplay:10.37,2013-05-01 04:01:00,
2013-05-01 00:06:00,46.4,33.3,30.33,North,0,0.0,0.0,60,0.00,CLR,,0.00,0.0,WeatherDisplay:10.37,2013-05-01 04:06:00,
2013-05-01 00:11:00,46.2,33.5,30.33,North,0,0.0,0.0,61,0.00,CLR,,0.00,0.0,WeatherDisplay:10.37,2013-05-01 04:11:00,
2013-05-01 00:16:00,46.0,33.7,30.33,North,0,0.0,0.0,62,0.00,CLR,,0.00,0.0,WeatherDisplay:10.37,2013-05-01 04:16:00,
2013-05-01 00:21:00,45.8,33.5,30.33,North,0,0.0,0.0,62,0.00,CLR,,0.00,0.0,WeatherDisplay:10.37,2013-05-01 04:21:00,
2013-05-01 00:26:00,45.7,33.4,30.33,North,0,0.0,0.0,62,0.00,CLR,,0.00,0.0,WeatherDisplay:10.37,2013-05-01 04:26:00,
2013-05-01 00:31:00,45.5,33.6,30.33,North,0,0.0,0.0,63,0.00,CLR,,0.00,0.0,WeatherDisplay:10.37,2013-05-01 04:31:00,
2013-05-01 00:36:00,45.3,33.8,30.33,North,0,0.0,0.0,64,0.00,CLR,,0.00,0.0,WeatherDisplay:10.37,2013-05-01 04:36:00,
2013-05-01 00:41:00,45.1,33.2,30.33,North,0,0.0,0.0,63,0.00,CLR,,0.00,0.0,WeatherDisplay:10.37,2013-05-01 04:41:00,
2013-05-01 00:46:00,44.9,33.8,30.33,North,0,0.0,0.0,65,0.00,CLR,,0.00,0.0,WeatherDisplay:10.37,2013-05-01 04:46:00,
2013-05-01 00:51:00,44.7,33.6,30.33,North,0,0.0,0.0,65,0.00,CLR,,0.00,0.0,WeatherDisplay:10.37,2013-05-01 04:51:00,
2013-05-01 00:56:00,44.5,33.1,30.33,North,0,0.0,0.0,64,0.00,CLR,,0.00,0.0,WeatherDisplay:10.37,2013-05-01 04:56:00,
2013-05-01 01:01:00,44.3,32.9,30.34,North,0,0.0,0.0,64,0.00,CLR,,0.00,0.0,WeatherDisplay:10.37,2013-05-01 05:01:00,
2013-05-01 01:06:00,44.2,33.6,30.34,North,0,0.0,0.0,66,0.00,CLR,,0.00,0.0,WeatherDisplay:10.37,2013-05-01 05:06:00,
2013-05-01 01:11:00,44.0,33.4,30.33,North,0,0.0,0.0,66,0.00,CLR,,0.00,0.0,WeatherDisplay:10.37,2013-05-01 05:11:00,
2013-05-01 01:16:00,43.8,33.2,30.33,North,0,0.0,0.0,66,0.00,CLR,,0.00,0.0,WeatherDisplay:10.37,2013-05-01 05:16:00,
2013-05-01 01:21:00,43.6,33.0,30.33,North,0,0.0,0.0,66,0.00,CLR,,0.00,0.0,WeatherDisplay:10.37,2013-05-01 05:21:00,
2013-05-01 01:26:00,43.4,32.8,30.33,North,0,0.0,0.0,66,0.00,CLR,,0.00,0.0,WeatherDisplay:10.37,2013-05-01 05:26:00,
2013-05-01 01:31:00,43.3,32.7,30.33,North,0,0.0,0.0,66,0.00,CLR,,0.00,0.0,WeatherDisplay:10.37,2013-05-01 05:31:00,
2013-05-01 01:36:00,43.2,33.0,30.34,North,0,0.0,0.0,67,0.00,CLR,,0.00,0.0,WeatherDisplay:10.37,2013-05-01 05:36:00,
2013-05-01 01:41:00,43.1,32.9,30.34,North,0,0.0,0.0,67,0.00,CLR,,0.00,0.0,WeatherDisplay:10.37,2013-05-01 05:41:00,
2013-05-01 01:46:00,43.0,33.5,30.34,North,0,0.0,0.0,69,0.00,CLR,,0.00,0.0,WeatherDisplay:10.37,2013-05-01 05:46:00,
2013-05-01 01:51:00,42.9,33.4,30.33,North,0,0.0,0.0,69,0.00,CLR,,0.00,0.0,WeatherDisplay:10.37,2013-05-01 05:51:00,
2013-05-01 01:56:00,42.7,33.6,30.33,North,0,0.0,0.0,70,0.00,CLR,,0.00,0.0,WeatherDisplay:10.37,2013-05-01 05:56:00,
2013-05-01 02:01:00,42.5,33.4,30.33,North,0,0.0,0.0,70,0.00,CLR,,0.00,0.0,WeatherDisplay:10.37,2013-05-01 06:01:00,
2013-05-01 02:06:00,42.4,33.3,30.33,North,0,0.0,0.0,70,0.00,CLR,,0.00,0.0,WeatherDisplay:10.37,2013-05-01 06:06:00,
2013-05-01 02:11:00,42.2,33.1,30.33,North,0,0.0,0.0,70,0.00,CLR,,0.00,0.0,WeatherDisplay:10.37,2013-05-01 06:11:00,
2013-05-01 02:16:00,42.1,33.0,30.33,North,0,0.0,0.0,70,0.00,CLR,,0.00,0.0,WeatherDisplay:10.37,2013-05-01 06:16:00,
2013-05-01 02:21:00,42.0,33.3,30.33,North,0,0.0,0.0,71,0.00,CLR,,0.00,0.0,WeatherDisplay:10.37,2013-05-01 06:21:00,
2013-05-01 02:26:00,41.9,33.2,30.34,North,0,0.0,0.0,71,0.00,CLR,,0.00,0.0,WeatherDisplay:10.37,2013-05-01 06:26:00,
2013-05-01 02:31:00,41.8,33.1,30.34,North,0,0.0,0.0,71,0.00,CLR,,0.00,0.0,WeatherDisplay:10.37,2013-05-01 06:31:00,
2013-05-01 02:36:00,41.7,33.0,30.34,North,0,0.0,0.0,71,0.00,CLR,,0.00,0.0,WeatherDisplay:10.37,2013-05-01 06:36:00,
2013-05-01 02:41:00,41.6,32.9,30.34,North,0,0.0,0.0,71,0.00,CLR,,0.00,0.0,WeatherDisplay:10.37,2013-05-01 06:41:00,
2013-05-01 02:46:00,41.6,33.2,30.34,North,0,0.0,0.0,72,0.00,CLR,,0.00,0.0,WeatherDisplay:10.37,2013-05-01 06:46:00,
2013-05-01 02:51:00,41.4,33.4,30.34,North,0,0.0,0.0,73,0.00,CLR,,0.00,0.0,WeatherDisplay:10.37,2013-05-01 06:51:00,
2013-05-01 02:56:00,41.2,33.2,30.34,North,0,0.0,0.0,73,0.00,CLR,,0.00,0.0,WeatherDisplay:10.37,2013-05-01 06:56:00,
2013-05-01 03:01:00,41.1,33.1,30.35,North,0,0.0,0.0,73,0.00,CLR,,0.00,0.0,WeatherDisplay:10.37,2013-05-01 07:01:00,
2013-05-01 03:06:00,40.9,32.9,30.35,North,0,0.0,0.0,73,0.00,CLR,,0.00,0.0,WeatherDisplay:10.37,2013-05-01 07:06:00,
2013-05-01 03:11:00,40.7,33.1,30.35,North,0,0.0,0.0,74,0.00,CLR,,0.00,0.0,WeatherDisplay:10.37,2013-05-01 07:11:00,
2013-05-01 03:16:00,40.5,33.5,30.35,North,0,0.0,0.0,76,0.00,CLR,,0.00,0.0,WeatherDisplay:10.37,2013-05-01 07:16:00,
2013-05-01 03:21:00,40.3,33.0,30.35,North,0,0.0,0.0,75,0.00,CLR,,0.00,0.0,WeatherDisplay:10.37,2013-05-01 07:21:00,
2013-05-01 03:26:00,40.1,33.1,30.35,North,0,0.0,0.0,76,0.00,CLR,,0.00,0.0,WeatherDisplay:10.37,2013-05-01 07:26:00,
2013-05-01 03:31:00,40.0,33.4,30.36,North,0,0.0,0.0,77,0.00,CLR,,0.00,0.0,WeatherDisplay:10.37,2013-05-01 07:31:00,
2013-05-01 03:36:00,39.7,32.8,30.36,North,0,0.0,0.0,76,0.00,CLR,,0.00,0.0,WeatherDisplay:10.37,2013-05-01 07:36:00,
2013-05-01 03:41:00,39.5,32.6,30.36,North,0,0.0,0.0,76,0.00,CLR,,0.00,0.0,WeatherDisplay:10.37,2013-05-01 07:41:00,
2013-05-01 03:46:00,39.4,32.1,30.36,North,0,0.0,0.0,75,0.00,CLR,,0.00,0.0,WeatherDisplay:10.37,2013-05-01 07:46:00,
2013-05-01 03:51:00,39.3,32.0,30.36,North,0,0.0,0.0,75,0.00,CLR,,0.00,0.0,WeatherDisplay:10.37,2013-05-01 07:51:00,
2013-05-01 03:56:00,39.2,31.9,30.36,North,0,0.0,0.0,75,0.00,CLR,,0.00,0.0,WeatherDisplay:10.37,2013-05-01 07:56:00,
2013-05-01 04:01:00,39.1,31.8,30.36,North,0,0.0,0.0,75,0.00,CLR,,0.00,0.0,WeatherDisplay:10.37,2013-05-01 08:01:00,
2013-05-01 04:06:00,39.1,32.2,30.36,North,0,0.0,0.0,76,0.00,CLR,,0.00,0.0,WeatherDisplay:10.37,2013-05-01 08:06:00,
2013-05-01 04:11:00,39.1,32.2,30.37,North,0,0.0,0.0,76,0.00,CLR,,0.00,0.0,WeatherDisplay:10.37,2013-05-01 08:11:00,
2013-05-01 04:16:00,39.0,32.1,30.37,North,0,0.0,0.0,76,0.00,CLR,,0.00,0.0,WeatherDisplay:10.37,2013-05-01 08:16:00,
2013-05-01 04:21:00,39.0,32.1,30.37,North,0,0.0,0.0,76,0.00,CLR,,0.00,0.0,WeatherDisplay:10.37,2013-05-01 08:21:00,
2013-05-01 04:26:00,38.9,32.0,30.37,North,0,0.0,0.0,76,0.00,CLR,,0.00,0.0,WeatherDisplay:10.37,2013-05-01 08:26:00,
2013-05-01 04:31:00,38.9,32.0,30.37,North,0,0.0,0.0,76,0.00,CLR,,0.00,0.0,WeatherDisplay:10.37,2013-05-01 08:31:00,
2013-05-01 04:36:00,38.8,31.9,30.37,North,0,0.0,0.0,76,0.00,CLR,,0.00,0.0,WeatherDisplay:10.37,2013-05-01 08:36:00,
2013-05-01 04:41:00,38.7,31.8,30.37,North,0,0.0,0.0,76,0.00,CLR,,0.00,0.0,WeatherDisplay:10.37,2013-05-01 08:41:00,
2013-05-01 04:46:00,38.6,31.7,30.37,North,0,0.0,0.0,76,0.00,CLR,,0.00,0.0,WeatherDisplay:10.37,2013-05-01 08:46:00,
2013-05-01 04:51:00,38.5,31.6,30.37,North,0,0.0,0.0,76,0.00,CLR,,0.00,0.0,WeatherDisplay:10.37,2013-05-01 08:51:00,
2013-05-01 04:56:00,38.4,31.5,30.37,North,0,0.0,0.0,76,0.00,CLR,,0.00,0.0,WeatherDisplay:10.37,2013-05-01 08:56:00,
2013-05-01 05:01:00,38.3,31.4,30.37,North,0,0.0,0.0,76,0.00,CLR,,0.00,0.0,WeatherDisplay:10.37,2013-05-01 09:01:00,
2013-05-01 05:06:00,38.1,31.2,30.37,North,0,0.0,0.0,76,0.00,CLR,,0.00,0.0,WeatherDisplay:10.37,2013-05-01 09:06:00,
2013-05-01 05:11:00,38.0,31.1,30.37,North,0,0.0,0.0,76,0.00,OVC,,0.00,0.0,WeatherDisplay:10.37,2013-05-01 09:11:00,
2013-05-01 05:16:00,37.9,31.3,30.38,North,0,0.0,0.0,77,0.00,OVC,,0.00,0.0,WeatherDisplay:10.37,2013-05-01 09:16:00,
2013-05-01 05:21:00,37.7,31.5,30.38,North,0,0.0,0.0,78,0.00,OVC,,0.00,0.0,WeatherDisplay:10.37,2013-05-01 09:21:00,
2013-05-01 05:26:00,37.7,31.5,30.38,North,0,0.0,0.0,78,0.00,OVC,,0.00,0.0,WeatherDisplay:10.37,2013-05-01 09:26:00,
2013-05-01 05:31:00,37.6,31.4,30.38,North,0,0.0,0.0,78,0.00,OVC,,0.00,0.0,WeatherDisplay:10.37,2013-05-01 09:31:00,
2013-05-01 05:36:00,37.6,31.4,30.38,North,0,0.0,0.0,78,0.00,OVC,,0.00,0.0,WeatherDisplay:10.37,2013-05-01 09:36:00,
2013-05-01 05:41:00,37.5,31.3,30.39,North,0,0.0,0.0,78,0.00,OVC,,0.00,0.0,WeatherDisplay:10.37,2013-05-01 09:41:00,
2013-05-01 05:46:00,37.5,31.6,30.39,North,0,0.0,0.0,79,0.00,OVC,,0.00,0.0,WeatherDisplay:10.37,2013-05-01 09:46:00,
2013-05-01 05:51:00,37.4,31.5,30.39,North,0,0.0,0.0,79,0.00,SCT,,0.00,5.0,WeatherDisplay:10.37,2013-05-01 09:51:00,
2013-05-01 05:56:00,37.4,31.5,30.39,North,0,0.0,0.0,79,0.00,BKN,,0.00,7.0,WeatherDisplay:10.37,2013-05-01 09:56:00,
2013-05-01 06:01:00,37.4,31.5,30.39,North,0,0.0,0.0,79,0.00,BKN,,0.00,9.0,WeatherDisplay:10.37,2013-05-01 10:01:00,
2013-05-01 06:06:00,37.3,31.4,30.39,North,0,0.0,0.0,79,0.00,BKN,,0.00,11.0,WeatherDisplay:10.37,2013-05-01 10:06:00,
2013-05-01 06:11:00,37.3,31.4,30.39,North,0,0.0,0.0,79,0.00,BKN,,0.00,14.0,WeatherDisplay:10.37,2013-05-01 10:11:00,
2013-05-01 06:16:00,37.3,31.4,30.39,North,0,0.0,0.0,79,0.00,BKN,,0.00,16.0,WeatherDisplay:10.37,2013-05-01 10:16:00,
2013-05-01 06:21:00,37.3,31.4,30.39,North,0,0.0,0.0,79,0.00,BKN,,0.00,18.0,WeatherDisplay:10.37,2013-05-01 10:21:00,
2013-05-01 06:26:00,37.3,31.7,30.40,North,0,0.0,0.0,80,0.00,BKN,,0.00,19.0,WeatherDisplay:10.37,2013-05-01 10:26:00,
2013-05-01 06:31:00,37.4,31.8,30.39,North,0,0.0,0.0,80,0.00,BKN,,0.00,21.0,WeatherDisplay:10.37,2013-05-01 10:31:00,
2013-05-01 06:36:00,37.4,31.8,30.40,North,0,0.0,0.0,80,0.00,BKN,,0.00,30.0,WeatherDisplay:10.37,2013-05-01 10:36:00,
2013-05-01 06:41:00,37.6,32.3,30.40,North,0,0.0,0.0,81,0.00,BKN,,0.00,30.0,WeatherDisplay:10.37,2013-05-01 10:41:00,
2013-05-01 06:46:00,37.8,32.5,30.40,North,0,0.0,0.0,81,0.00,BKN,,0.00,37.0,WeatherDisplay:10.37,2013-05-01 10:46:00,
2013-05-01 06:51:00,38.0,33.0,30.40,North,0,0.0,0.0,82,0.00,BKN,,0.00,39.0,WeatherDisplay:10.37,2013-05-01 10:51:00,
2013-05-01 06:56:00,38.2,33.2,30.40,North,0,0.0,0.0,82,0.00,BKN,,0.00,28.0,WeatherDisplay:10.37,2013-05-01 10:56:00,
2013-05-01 07:01:00,38.6,33.6,30.40,North,0,0.0,0.0,82,0.00,BKN,,0.00,30.0,WeatherDisplay:10.37,2013-05-01 11:01:00,
2013-05-01 07:06:00,38.9,33.9,30.40,North,0,0.0,0.0,82,0.00,BKN,,0.00,32.0,WeatherDisplay:10.37,2013-05-01 11:06:00,
2013-05-01 07:11:00,39.1,34.1,30.41,North,0,0.0,0.0,82,0.00,BKN,,0.00,37.0,WeatherDisplay:10.37,2013-05-01 11:11:00,
2013-05-01 07:16:00,39.5,34.8,30.41,North,0,0.0,0.0,83,0.00,BKN,,0.00,40.0,WeatherDisplay:10.37,2013-05-01 11:16:00,
2013-05-01 07:21:00,39.9,34.9,30.41,North,0,0.0,0.0,82,0.00,BKN,,0.00,58.0,WeatherDisplay:10.37,2013-05-01 11:21:00,
2013-05-01 07:26:00,40.3,35.5,30.41,North,0,0.0,0.0,83,0.00,BKN,,0.00,56.0,WeatherDisplay:10.37,2013-05-01 11:26:00,
2013-05-01 07:31:00,40.8,36.0,30.41,North,0,0.0,0.0,83,0.00,BKN,,0.00,40.0,WeatherDisplay:10.37,2013-05-01 11:31:00,
2013-05-01 07:36:00,41.1,36.0,30.41,North,0,0.0,0.0,82,0.00,BKN,,0.00,40.0,WeatherDisplay:10.37,2013-05-01 11:36:00,
2013-05-01 07:41:00,41.7,36.0,30.41,North,0,0.0,0.0,80,0.00,BKN,,0.00,63.0,WeatherDisplay:10.37,2013-05-01 11:41:00,
2013-05-01 07:46:00,42.4,36.0,30.41,North,0,0.0,0.0,78,0.00,BKN,,0.00,60.0,WeatherDisplay:10.37,2013-05-01 11:46:00,
2013-05-01 07:51:00,43.3,36.6,30.41,North,0,0.0,0.0,77,0.00,BKN,,0.00,65.0,WeatherDisplay:10.37,2013-05-01 11:51:00,
2013-05-01 07:56:00,44.2,37.1,30.41,North,0,0.0,0.0,76,0.00,BKN,,0.00,118.0,WeatherDisplay:10.37,2013-05-01 11:56:00,
2013-05-01 08:01:00,45.2,37.4,30.41,North,0,0.0,0.0,74,0.00,BKN,,0.00,120.0,WeatherDisplay:10.37,2013-05-01 12:01:00,
2013-05-01 08:06:00,46.4,37.9,30.41,North,0,0.0,0.0,72,0.00,BKN,,0.00,127.0,WeatherDisplay:10.37,2013-05-01 12:06:00,
2013-05-01 08:11:00,47.6,37.9,30.42,North,0,0.0,0.0,69,0.00,BKN,,0.00,90.0,WeatherDisplay:10.37,2013-05-01 12:11:00,
2013-05-01 08:16:00,48.7,37.5,30.42,North,0,0.0,0.0,65,0.00,BKN,,0.00,167.0,WeatherDisplay:10.37,2013-05-01 12:16:00,
2013-05-01 08:21:00,49.8,36.5,30.42,North,0,0.0,0.0,60,0.00,BKN,,0.00,200.0,WeatherDisplay:10.37,2013-05-01 12:21:00,
2013-05-01 08:26:00,50.9,35.3,30.42,North,0,0.0,0.0,55,0.00,BKN,,0.00,172.0,WeatherDisplay:10.37,2013-05-01 12:26:00,
2013-05-01 08:31:00,51.9,34.8,30.42,North,0,0.0,0.0,52,0.00,BKN,,0.00,176.0,WeatherDisplay:10.37,2013-05-01 12:31:00,
2013-05-01 08:36:00,52.9,33.2,30.42,North,0,0.0,0.0,47,0.00,SCT,,0.00,399.0,WeatherDisplay:10.37,2013-05-01 12:36:00,
2013-05-01 08:41:00,53.9,33.6,30.42,North,0,0.0,0.0,46,0.00,SCT,,0.00,163.0,WeatherDisplay:10.37,2013-05-01 12:41:00,
2013-05-01 08:46:00,54.7,35.4,30.42,North,0,0.0,0.0,48,0.00,SCT,,0.00,290.0,WeatherDisplay:10.37,2013-05-01 12:46:00,
2013-05-01 08:51:00,55.4,35.5,30.42,North,0,0.0,0.0,47,0.00,SCT,,0.00,246.0,WeatherDisplay:10.37,2013-05-01 12:51:00,
2013-05-01 08:56:00,56.3,35.2,30.42,North,0,0.0,0.0,45,0.00,SCT,,0.00,410.0,WeatherDisplay:10.37,2013-05-01 12:56:00,
2013-05-01 09:01:00,57.1,35.4,30.42,North,0,0.0,0.0,44,0.00,FEW,,0.00,522.0,WeatherDisplay:10.37,2013-05-01 13:01:00,
2013-05-01 09:06:00,57.8,34.8,30.42,North,0,0.0,0.0,42,0.00,CLR,,0.00,554.0,WeatherDisplay:10.37,2013-05-01 13:06:00,
2013-05-01 09:11:00,58.7,34.4,30.42,North,0,0.0,0.0,40,0.00,CLR,,0.00,578.0,WeatherDisplay:10.37,2013-05-01 13:11:00,
2013-05-01 09:16:00,59.4,33.8,30.42,North,0,0.0,0.0,38,0.00,CLR,,0.00,589.0,WeatherDisplay:10.37,2013-05-01 13:16:00,
2013-05-01 09:21:00,60.2,35.8,30.42,North,0,0.0,0.0,40,0.00,CLR,,0.00,601.0,WeatherDisplay:10.37,2013-05-01 13:21:00,
2013-05-01 09:26:00,61.1,33.9,30.42,North,0,0.0,0.0,36,0.00,CLR,,0.00,619.0,WeatherDisplay:10.37,2013-05-01 13:26:00,
2013-05-01 09:31:00,61.8,34.5,30.42,North,0,0.0,0.0,36,0.00,CLR,,0.00,633.0,WeatherDisplay:10.37,2013-05-01 13:31:00,
2013-05-01 09:36:00,62.5,35.2,30.42,North,0,0.0,0.0,36,0.00,CLR,,0.00,649.0,WeatherDisplay:10.37,2013-05-01 13:36:00,
2013-05-01 09:41:00,63.2,34.3,30.42,North,0,0.0,0.0,34,0.00,CLR,,0.00,663.0,WeatherDisplay:10.37,2013-05-01 13:41:00,
2013-05-01 09:46:00,63.7,34.8,30.42,North,0,0.0,0.0,34,0.00,CLR,,0.00,677.0,WeatherDisplay:10.37,2013-05-01 13:46:00,
2013-05-01 09:51:00,64.2,36.0,30.42,North,0,0.0,0.0,35,0.00,CLR,,0.00,689.0,WeatherDisplay:10.37,2013-05-01 13:51:00,
2013-05-01 09:56:00,64.4,36.1,30.42,North,0,0.0,0.0,35,0.00,CLR,,0.00,700.0,WeatherDisplay:10.37,2013-05-01 13:56:00,
2013-05-01 10:01:00,64.9,38.0,30.42,North,0,0.0,0.0,37,0.00,CLR,,0.00,712.0,WeatherDisplay:10.37,2013-05-01 14:01:00,
2013-05-01 10:06:00,65.6,37.9,30.42,North,0,0.0,0.0,36,0.00,CLR,,0.00,726.0,WeatherDisplay:10.37,2013-05-01 14:06:00,
2013-05-01 10:11:00,65.9,36.0,30.43,North,0,0.0,0.0,33,0.00,CLR,,0.00,738.0,WeatherDisplay:10.37,2013-05-01 14:11:00,
2013-05-01 10:16:00,66.3,36.3,30.43,North,0,0.0,0.0,33,0.00,CLR,,0.00,747.0,WeatherDisplay:10.37,2013-05-01 14:16:00,
2013-05-01 10:21:00,66.7,38.2,30.43,North,0,0.0,0.0,35,0.00,CLR,,0.00,763.0,WeatherDisplay:10.37,2013-05-01 14:21:00,
2013-05-01 10:26:00,67.4,39.5,30.43,North,0,0.0,0.0,36,0.00,CLR,,0.00,770.0,WeatherDisplay:10.37,2013-05-01 14:26:00,
2013-05-01 10:31:00,67.8,39.1,30.43,North,0,0.0,0.0,35,0.00,CLR,,0.00,784.0,WeatherDisplay:10.37,2013-05-01 14:31:00,
2013-05-01 10:36:00,68.3,38.8,30.43,North,0,0.0,0.0,34,0.00,CLR,,0.00,793.0,WeatherDisplay:10.37,2013-05-01 14:36:00,
2013-05-01 10:41:00,68.4,39.7,30.43,North,0,0.0,0.0,35,0.00,CLR,,0.00,803.0,WeatherDisplay:10.37,2013-05-01 14:41:00,
2013-05-01 10:46:00,68.8,39.3,30.43,North,0,0.0,0.0,34,0.00,CLR,,0.00,814.0,WeatherDisplay:10.37,2013-05-01 14:46:00,
2013-05-01 10:51:00,69.0,40.9,30.43,North,0,0.0,0.0,36,0.00,CLR,,0.00,821.0,WeatherDisplay:10.37,2013-05-01 14:51:00,
2013-05-01 10:56:00,69.3,42.6,30.43,North,0,0.0,0.0,38,0.00,CLR,,0.00,830.0,WeatherDisplay:10.37,2013-05-01 14:56:00,
2013-05-01 11:01:00,68.9,39.4,30.43,North,0,0.0,0.0,34,0.00,CLR,,0.00,838.0,WeatherDisplay:10.37,2013-05-01 15:01:00,
2013-05-01 11:06:00,69.0,40.2,30.42,North,0,0.0,0.0,35,0.00,CLR,,0.00,847.0,WeatherDisplay:10.37,2013-05-01 15:06:00,
2013-05-01 11:11:00,69.3,39.7,30.42,North,0,0.0,0.0,34,0.00,CLR,,0.00,853.0,WeatherDisplay:10.37,2013-05-01 15:11:00,
2013-05-01 11:16:00,69.5,39.9,30.42,North,0,0.0,0.0,34,0.00,CLR,,0.00,863.0,WeatherDisplay:10.37,2013-05-01 15:16:00,
2013-05-01 11:21:00,69.4,39.0,30.42,North,0,0.0,0.0,33,0.00,CLR,,0.00,870.0,WeatherDisplay:10.37,2013-05-01 15:21:00,
2013-05-01 11:26:00,69.3,41.2,30.42,North,0,0.0,0.0,36,0.00,CLR,,0.00,877.0,WeatherDisplay:10.37,2013-05-01 15:26:00,
2013-05-01 11:31:00,69.7,40.8,30.42,North,0,0.0,0.0,35,0.00,CLR,,0.00,881.0,WeatherDisplay:10.37,2013-05-01 15:31:00,
2013-05-01 11:36:00,69.6,40.0,30.42,North,0,0.0,0.0,34,0.00,CLR,,0.00,889.0,WeatherDisplay:10.37,2013-05-01 15:36:00,
2013-05-01 11:41:00,69.1,40.3,30.42,North,0,0.0,0.0,35,0.00,CLR,,0.00,898.0,WeatherDisplay:10.37,2013-05-01 15:41:00,
2013-05-01 11:46:00,68.9,40.1,30.42,North,0,0.0,0.0,35,0.00,CLR,,0.00,900.0,WeatherDisplay:10.37,2013-05-01 15:46:00,
2013-05-01 11:51:00,68.6,42.6,30.42,North,0,0.0,0.0,39,0.00,CLR,,0.00,905.0,WeatherDisplay:10.37,2013-05-01 15:51:00,
2013-05-01 11:56:00,68.4,39.7,30.42,North,0,0.0,0.0,35,0.00,CLR,,0.00,909.0,WeatherDisplay:10.37,2013-05-01 15:56:00,
2013-05-01 12:01:00,69.3,42.6,30.42,North,0,0.0,0.0,38,0.00,CLR,,0.00,914.0,WeatherDisplay:10.37,2013-05-01 16:01:00,
2013-05-01 12:06:00,69.9,41.0,30.41,North,0,0.0,0.0,35,0.00,CLR,,0.00,912.0,WeatherDisplay:10.37,2013-05-01 16:06:00,
2013-05-01 12:11:00,69.2,40.4,30.41,North,0,0.0,0.0,35,0.00,CLR,,0.00,921.0,WeatherDisplay:10.37,2013-05-01 16:11:00,
2013-05-01 12:16:00,69.1,40.3,30.41,North,0,0.0,0.0,35,0.00,CLR,,0.00,925.0,WeatherDisplay:10.37,2013-05-01 16:16:00,
2013-05-01 12:21:00,69.9,40.2,30.41,North,0,0.0,0.0,34,0.00,CLR,,0.00,928.0,WeatherDisplay:10.37,2013-05-01 16:21:00,
2013-05-01 12:26:00,70.0,41.8,30.41,North,0,0.0,0.0,36,0.00,CLR,,0.00,930.0,WeatherDisplay:10.37,2013-05-01 16:26:00,
2013-05-01 12:31:00,69.1,40.3,30.41,North,0,0.0,0.0,35,0.00,CLR,,0.00,926.0,WeatherDisplay:10.37,2013-05-01 16:31:00,
2013-05-01 12:36:00,70.3,40.6,30.41,North,0,0.0,0.0,34,0.00,CLR,,0.00,928.0,WeatherDisplay:10.37,2013-05-01 16:36:00,
2013-05-01 12:41:00,70.8,41.0,30.41,North,0,0.0,0.0,34,0.00,FEW,,0.00,932.0,WeatherDisplay:10.37,2013-05-01 16:41:00,
2013-05-01 12:46:00,71.7,44.0,30.40,North,0,0.0,0.0,37,0.00,CLR,,0.00,930.0,WeatherDisplay:10.37,2013-05-01 16:46:00,
2013-05-01 12:51:00,72.0,42.8,30.40,North,0,0.0,0.0,35,0.00,FEW,,0.00,932.0,WeatherDisplay:10.37,2013-05-01 16:51:00,
2013-05-01 12:56:00,71.7,43.3,30.40,North,0,0.0,0.0,36,0.00,FEW,,0.00,926.0,WeatherDisplay:10.37,2013-05-01 16:56:00,
2013-05-01 13:01:00,71.0,41.2,30.40,North,0,0.0,0.0,34,0.00,CLR,,0.00,930.0,WeatherDisplay:10.37,2013-05-01 17:01:00,
2013-05-01 13:06:00,70.1,41.9,30.40,North,0,0.0,0.0,36,0.00,CLR,,0.00,928.0,WeatherDisplay:10.37,2013-05-01 17:06:00,
2013-05-01 13:11:00,70.8,41.0,30.40,North,0,0.0,0.0,34,0.00,CLR,,0.00,930.0,WeatherDisplay:10.37,2013-05-01 17:11:00,
2013-05-01 13:16:00,69.9,41.0,30.40,North,0,0.0,0.0,35,0.00,CLR,,0.00,928.0,WeatherDisplay:10.37,2013-05-01 17:16:00,
2013-05-01 13:21:00,70.2,39.7,30.40,North,0,0.0,0.0,33,0.00,CLR,,0.00,925.0,WeatherDisplay:10.37,2013-05-01 17:21:00,
2013-05-01 13:26:00,70.8,42.5,30.40,North,0,0.0,0.0,36,0.00,CLR,,0.00,923.0,WeatherDisplay:10.37,2013-05-01 17:26:00,
2013-05-01 13:31:00,71.3,41.5,30.40,North,0,0.0,0.0,34,0.00,CLR,,0.00,921.0,WeatherDisplay:10.37,2013-05-01 17:31:00,
2013-05-01 13:36:00,70.4,40.7,30.40,North,0,0.0,0.0,34,0.00,CLR,,0.00,916.0,WeatherDisplay:10.37,2013-05-01 17:36:00,
2013-05-01 13:41:00,70.4,41.4,30.40,North,0,0.0,0.0,35,0.00,CLR,,0.00,911.0,WeatherDisplay:10.37,2013-05-01 17:41:00,
2013-05-01 13:46:00,70.4,42.9,30.40,North,0,0.0,0.0,37,0.00,CLR,,0.00,911.0,WeatherDisplay:10.37,2013-05-01 17:46:00,
2013-05-01 13:51:00,70.9,41.9,30.39,North,0,0.0,0.0,35,0.00,CLR,,0.00,905.0,WeatherDisplay:10.37,2013-05-01 17:51:00,
2013-05-01 13:56:00,70.9,41.9,30.39,North,0,0.0,0.0,35,0.00,CLR,,0.00,902.0,WeatherDisplay:10.37,2013-05-01 17:56:00,
2013-05-01 14:01:00,71.1,42.0,30.39,North,0,0.0,0.0,35,0.00,CLR,,0.00,898.0,WeatherDisplay:10.37,2013-05-01 18:01:00,
2013-05-01 14:06:00,71.5,40.9,30.39,North,0,0.0,0.0,33,0.00,CLR,,0.00,891.0,WeatherDisplay:10.37,2013-05-01 18:06:00,
2013-05-01 14:11:00,71.7,40.3,30.39,North,0,0.0,0.0,32,0.00,CLR,,0.00,886.0,WeatherDisplay:10.37,2013-05-01 18:11:00,
2013-05-01 14:16:00,71.1,39.7,30.39,North,0,0.0,0.0,32,0.00,CLR,,0.00,879.0,WeatherDisplay:10.37,2013-05-01 18:16:00,
2013-05-01 14:21:00,70.5,43.0,30.39,North,0,0.0,0.0,37,0.00,CLR,,0.00,872.0,WeatherDisplay:10.37,2013-05-01 18:21:00,
2013-05-01 14:26:00,70.7,39.4,30.40,North,0,0.0,0.0,32,0.00,CLR,,0.00,865.0,WeatherDisplay:10.37,2013-05-01 18:26:00,
2013-05-01 14:31:00,70.0,38.8,30.40,North,0,0.0,0.0,32,0.00,CLR,,0.00,856.0,WeatherDisplay:10.37,2013-05-01 18:31:00,
2013-05-01 14:36:00,70.9,41.1,30.40,North,0,0.0,0.0,34,0.00,CLR,,0.00,849.0,WeatherDisplay:10.37,2013-05-01 18:36:00,
2013-05-01 14:41:00,71.2,40.6,30.40,North,0,0.0,0.0,33,0.00,CLR,,0.00,840.0,WeatherDisplay:10.37,2013-05-01 18:41:00,
2013-05-01 14:46:00,70.1,38.9,30.39,North,0,0.0,0.0,32,0.00,CLR,,0.00,831.0,WeatherDisplay:10.37,2013-05-01 18:46:00,
2013-05-01 14:51:00,70.8,41.8,30.39,North,0,0.0,0.0,35,0.00,CLR,,0.00,821.0,WeatherDisplay:10.37,2013-05-01 18:51:00,
2013-05-01 14:56:00,70.6,39.3,30.39,North,0,0.0,0.0,32,0.00,CLR,,0.00,814.0,WeatherDisplay:10.37,2013-05-01 18:56:00,
2013-05-01 15:01:00,70.8,39.5,30.39,North,0,0.0,0.0,32,0.00,CLR,,0.00,803.0,WeatherDisplay:10.37,2013-05-01 19:01:00,
2013-05-01 15:06:00,70.9,39.6,30.39,North,0,0.0,0.0,32,0.00,CLR,,0.00,791.0,WeatherDisplay:10.37,2013-05-01 19:06:00,
2013-05-01 15:11:00,70.4,38.3,30.38,North,0,0.0,0.0,31,0.00,CLR,,0.00,782.0,WeatherDisplay:10.37,2013-05-01 19:11:00,
2013-05-01 15:16:00,71.3,39.1,30.38,North,0,0.0,0.0,31,0.00,CLR,,0.00,770.0,WeatherDisplay:10.37,2013-05-01 19:16:00,
2013-05-01 15:21:00,70.9,40.3,30.38,North,0,0.0,0.0,33,0.00,CLR,,0.00,758.0,WeatherDisplay:10.37,2013-05-01 19:21:00,
2013-05-01 15:26:00,70.7,38.6,30.39,North,0,0.0,0.0,31,0.00,CLR,,0.00,745.0,WeatherDisplay:10.37,2013-05-01 19:26:00,
2013-05-01 15:31:00,71.1,38.9,30.39,North,0,0.0,0.0,31,0.00,CLR,,0.00,735.0,WeatherDisplay:10.37,2013-05-01 19:31:00,
2013-05-01 15:36:00,70.2,39.7,30.39,North,0,0.0,0.0,33,0.00,CLR,,0.00,722.0,WeatherDisplay:10.37,2013-05-01 19:36:00,
2013-05-01 15:41:00,70.9,38.7,30.39,North,0,0.0,0.0,31,0.00,CLR,,0.00,710.0,WeatherDisplay:10.37,2013-05-01 19:41:00,
2013-05-01 15:46:00,71.1,38.9,30.38,North,0,0.0,0.0,31,0.00,CLR,,0.00,698.0,WeatherDisplay:10.37,2013-05-01 19:46:00,
2013-05-01 15:51:00,71.5,38.4,30.38,North,0,0.0,0.0,30,0.00,CLR,,0.00,687.0,WeatherDisplay:10.37,2013-05-01 19:51:00,
2013-05-01 15:56:00,71.3,38.2,30.39,North,0,0.0,0.0,30,0.00,CLR,,0.00,671.0,WeatherDisplay:10.37,2013-05-01 19:56:00,
2013-05-01 16:01:00,71.0,38.8,30.39,North,0,0.0,0.0,31,0.00,CLR,,0.00,656.0,WeatherDisplay:10.37,2013-05-01 20:01:00,
2013-05-01 16:06:00,71.1,40.5,30.39,North,0,0.0,0.0,33,0.00,CLR,,0.00,645.0,WeatherDisplay:10.37,2013-05-01 20:06:00,
2013-05-01 16:11:00,71.0,38.8,30.38,North,0,0.0,0.0,31,0.00,CLR,,0.00,568.0,WeatherDisplay:10.37,2013-05-01 20:11:00,
2013-05-01 16:16:00,70.6,37.6,30.38,North,0,0.0,0.0,30,0.00,FEW,,0.00,489.0,WeatherDisplay:10.37,2013-05-01 20:16:00,
2013-05-01 16:21:00,70.4,39.9,30.38,North,0,0.0,0.0,33,0.00,FEW,,0.00,471.0,WeatherDisplay:10.37,2013-05-01 20:21:00,
2013-05-01 16:26:00,69.9,38.7,30.38,North,0,0.0,0.0,32,0.00,SCT,,0.00,373.0,WeatherDisplay:10.37,2013-05-01 20:26:00,
2013-05-01 16:31:00,69.3,38.2,30.38,North,0,0.0,0.0,32,0.00,SCT,,0.00,353.0,WeatherDisplay:10.37,2013-05-01 20:31:00,
2013-05-01 16:36:00,69.3,39.7,30.38,North,0,0.0,0.0,34,0.00,SCT,,0.00,295.0,WeatherDisplay:10.37,2013-05-01 20:36:00,
2013-05-01 16:41:00,69.4,39.0,30.39,North,0,0.0,0.0,33,0.00,SCT,,0.00,297.0,WeatherDisplay:10.37,2013-05-01 20:41:00,
2013-05-01 16:46:00,69.3,38.2,30.38,North,0,0.0,0.0,32,0.00,FEW,,0.00,355.0,WeatherDisplay:10.37,2013-05-01 20:46:00,
2013-05-01 16:51:00,69.1,39.5,30.38,North,0,0.0,0.0,34,0.00,SCT,,0.00,311.0,WeatherDisplay:10.37,2013-05-01 20:51:00,
2013-05-01 16:56:00,68.8,38.5,30.38,North,0,0.0,0.0,33,0.00,SCT,,0.00,299.0,WeatherDisplay:10.37,2013-05-01 20:56:00,
2013-05-01 17:01:00,68.6,39.1,30.38,North,0,0.0,0.0,34,0.00,SCT,,0.00,304.0,WeatherDisplay:10.37,2013-05-01 21:01:00,
2013-05-01 17:06:00,68.4,38.2,30.38,North,0,0.0,0.0,33,0.00,SCT,,0.00,167.0,WeatherDisplay:10.37,2013-05-01 21:06:00,
2013-05-01 17:11:00,68.2,38.0,30.38,North,0,0.0,0.0,33,0.00,SCT,,0.00,318.0,WeatherDisplay:10.37,2013-05-01 21:11:00,
2013-05-01 17:16:00,68.0,38.6,30.39,North,0,0.0,0.0,34,0.00,SCT,,0.00,253.0,WeatherDisplay:10.37,2013-05-01 21:16:00,
2013-05-01 17:21:00,68.2,38.7,30.39,North,0,0.0,0.0,34,0.00,BKN,,0.00,155.0,WeatherDisplay:10.37,2013-05-01 21:21:00,
2013-05-01 17:26:00,68.2,38.0,30.38,North,0,0.0,0.0,33,0.00,BKN,,0.00,144.0,WeatherDisplay:10.37,2013-05-01 21:26:00,
2013-05-01 17:31:00,68.2,38.0,30.39,North,0,0.0,0.0,33,0.00,BKN,,0.00,186.0,WeatherDisplay:10.37,2013-05-01 21:31:00,
2013-05-01 17:36:00,68.1,38.7,30.39,North,0,0.0,0.0,34,0.00,SCT,,0.00,257.0,WeatherDisplay:10.37,2013-05-01 21:36:00,
2013-05-01 17:41:00,68.0,38.6,30.39,North,0,0.0,0.0,34,0.00,FEW,,0.00,185.0,WeatherDisplay:10.37,2013-05-01 21:41:00,
2013-05-01 17:46:00,67.8,38.4,30.39,North,0,0.0,0.0,34,0.00,SCT,,0.00,202.0,WeatherDisplay:10.37,2013-05-01 21:46:00,
2013-05-01 17:51:00,67.5,38.1,30.39,North,0,0.0,0.0,34,0.00,BKN,,0.00,58.0,WeatherDisplay:10.37,2013-05-01 21:51:00,
2013-05-01 17:56:00,67.5,38.9,30.39,North,0,0.0,0.0,35,0.00,BKN,,0.00,134.0,WeatherDisplay:10.37,2013-05-01 21:56:00,
2013-05-01 18:01:00,67.1,39.9,30.39,North,0,0.0,0.0,37,0.00,BKN,,0.00,121.0,WeatherDisplay:10.37,2013-05-01 22:01:00,
2013-05-01 18:06:00,66.8,38.3,30.39,North,0,0.0,0.0,35,0.00,BKN,,0.00,62.0,WeatherDisplay:10.37,2013-05-01 22:06:00,
2013-05-01 18:11:00,66.7,38.9,30.39,North,0,0.0,0.0,36,0.00,BKN,,0.00,53.0,WeatherDisplay:10.37,2013-05-01 22:11:00,
2013-05-01 18:16:00,66.5,38.7,30.40,North,0,0.0,0.0,36,0.00,BKN,,0.00,33.0,WeatherDisplay:10.37,2013-05-01 22:16:00,
2013-05-01 18:21:00,66.5,38.0,30.39,North,0,0.0,0.0,35,0.00,BKN,,0.00,30.0,WeatherDisplay:10.37,2013-05-01 22:21:00,
2013-05-01 18:26:00,66.4,38.6,30.39,North,0,0.0,0.0,36,0.00,BKN,,0.00,28.0,WeatherDisplay:10.37,2013-05-01 22:26:00,
2013-05-01 18:31:00,66.2,38.4,30.39,North,0,0.0,0.0,36,0.00,BKN,,0.00,37.0,WeatherDisplay:10.37,2013-05-01 22:31:00,
2013-05-01 18:36:00,66.0,39.0,30.39,North,0,0.0,0.0,37,0.00,BKN,,0.00,26.0,WeatherDisplay:10.37,2013-05-01 22:36:00,
2013-05-01 18:41:00,65.7,38.7,30.40,North,0,0.0,0.0,37,0.00,BKN,,0.00,25.0,WeatherDisplay:10.37,2013-05-01 22:41:00,
2013-05-01 18:46:00,65.5,38.5,30.40,North,0,0.0,0.0,37,0.00,BKN,,0.00,21.0,WeatherDisplay:10.37,2013-05-01 22:46:00,
2013-05-01 18:51:00,65.2,38.9,30.40,North,0,0.0,0.0,38,0.00,BKN,,0.00,19.0,WeatherDisplay:10.37,2013-05-01 22:51:00,
2013-05-01 18:56:00,65.0,38.1,30.40,North,0,0.0,0.0,37,0.00,BKN,,0.00,19.0,WeatherDisplay:10.37,2013-05-01 22:56:00,
2013-05-01 19:01:00,64.7,38.5,30.41,North,0,0.0,0.0,38,0.00,BKN,,0.00,16.0,WeatherDisplay:10.37,2013-05-01 23:01:00,
2013-05-01 19:06:00,64.4,38.2,30.41,North,0,0.0,0.0,38,0.00,BKN,,0.00,14.0,WeatherDisplay:10.37,2013-05-01 23:06:00,
2013-05-01 19:11:00,64.2,38.7,30.41,North,0,0.0,0.0,39,0.00,BKN,,0.00,12.0,WeatherDisplay:10.37,2013-05-01 23:11:00,
2013-05-01 19:16:00,64.0,39.2,30.41,North,0,0.0,0.0,40,0.00,BKN,,0.00,11.0,WeatherDisplay:10.37,2013-05-01 23:16:00,
2013-05-01 19:21:00,63.7,38.3,30.41,North,0,0.0,0.0,39,0.00,BKN,,0.00,9.0,WeatherDisplay:10.37,2013-05-01 23:21:00,
2013-05-01 19:26:00,63.5,38.7,30.42,North,0,0.0,0.0,40,0.00,BKN,,0.00,7.0,WeatherDisplay:10.37,2013-05-01 23:26:00,
2013-05-01 19:31:00,63.1,39.0,30.42,North,0,0.0,0.0,41,0.00,BKN,,0.00,7.0,WeatherDisplay:10.37,2013-05-01 23:31:00,
2013-05-01 19:36:00,62.8,39.4,30.42,North,0,0.0,0.0,42,0.00,BKN,,0.00,5.0,WeatherDisplay:10.37,2013-05-01 23:36:00,
2013-05-01 19:41:00,62.6,39.8,30.42,North,0,0.0,0.0,43,0.00,OVC,,0.00,0.0,WeatherDisplay:10.37,2013-05-01 23:41:00,
2013-05-01 19:46:00,62.2,39.4,30.42,North,0,0.0,0.0,43,0.00,OVC,,0.00,0.0,WeatherDisplay:10.37,2013-05-01 23:46:00,
2013-05-01 19:51:00,61.9,39.7,30.42,North,0,0.0,0.0,44,0.00,OVC,,0.00,0.0,WeatherDisplay:10.37,2013-05-01 23:51:00,
2013-05-01 19:56:00,61.5,39.4,30.42,North,0,0.0,0.0,44,0.00,OVC,,0.00,0.0,WeatherDisplay:10.37,2013-05-01 23:56:00,
2013-05-01 20:01:00,61.2,39.7,30.42,North,0,0.0,0.0,45,0.00,CLR,,0.00,0.0,WeatherDisplay:10.37,2013-05-02 00:01:00,
2013-05-01 20:06:00,60.9,39.4,30.42,North,0,0.0,0.0,45,0.00,CLR,,0.00,0.0,WeatherDisplay:10.37,2013-05-02 00:06:00,
2013-05-01 20:11:00,60.6,39.1,30.42,North,0,0.0,0.0,45,0.00,CLR,,0.00,0.0,WeatherDisplay:10.37,2013-05-02 00:11:00,
2013-05-01 20:16:00,60.3,38.9,30.42,North,0,0.0,0.0,45,0.00,CLR,,0.00,0.0,WeatherDisplay:10.37,2013-05-02 00:16:00,
2013-05-01 20:21:00,60.0,39.1,30.42,North,0,0.0,0.0,46,0.00,CLR,,0.00,0.0,WeatherDisplay:10.37,2013-05-02 00:21:00,
2013-05-01 20:26:00,59.7,38.9,30.42,North,0,0.0,0.0,46,0.00,CLR,,0.00,0.0,WeatherDisplay:10.37,2013-05-02 00:26:00,
2013-05-01 20:31:00,59.4,39.1,30.42,North,0,0.0,0.0,47,0.00,CLR,,0.00,0.0,WeatherDisplay:10.37,2013-05-02 00:31:00,
2013-05-01 20:36:00,59.1,39.9,30.42,North,0,0.0,0.0,49,0.00,CLR,,0.00,0.0,WeatherDisplay:10.37,2013-05-02 00:36:00,
2013-05-01 20:41:00,58.8,39.1,30.42,North,0,0.0,0.0,48,0.00,CLR,,0.00,0.0,WeatherDisplay:10.37,2013-05-02 00:41:00,
2013-05-01 20:46:00,58.5,39.9,30.42,North,0,0.0,0.0,50,0.00,CLR,,0.00,0.0,WeatherDisplay:10.37,2013-05-02 00:46:00,
2013-05-01 20:51:00,58.2,40.1,30.42,North,0,0.0,0.0,51,0.00,CLR,,0.00,0.0,WeatherDisplay:10.37,2013-05-02 00:51:00,
2013-05-01 20:56:00,57.9,40.4,30.42,North,0,0.0,0.0,52,0.00,CLR,,0.00,0.0,WeatherDisplay:10.37,2013-05-02 00:56:00,
2013-05-01 21:01:00,57.5,40.5,30.42,North,0,0.0,0.0,53,0.00,CLR,,0.00,0.0,WeatherDisplay:10.37,2013-05-02 01:01:00,
2013-05-01 21:06:00,57.1,40.1,30.42,North,0,0.0,0.0,53,0.00,CLR,,0.00,0.0,WeatherDisplay:10.37,2013-05-02 01:06:00,
2013-05-01 21:11:00,56.7,40.7,30.42,North,0,0.0,0.0,55,0.00,CLR,,0.00,0.0,WeatherDisplay:10.37,2013-05-02 01:11:00,
2013-05-01 21:16:00,56.4,40.0,30.42,North,0,0.0,0.0,54,0.00,CLR,,0.00,0.0,WeatherDisplay:10.37,2013-05-02 01:16:00,
2013-05-01 21:21:00,56.0,40.1,30.43,North,0,0.0,0.0,55,0.00,CLR,,0.00,0.0,WeatherDisplay:10.37,2013-05-02 01:21:00,
2013-05-01 21:26:00,55.7,40.2,30.43,North,0,0.0,0.0,56,0.00,CLR,,0.00,0.0,WeatherDisplay:10.37,2013-05-02 01:26:00,
2013-05-01 21:31:00,55.3,39.9,30.42,North,0,0.0,0.0,56,0.00,CLR,,0.00,0.0,WeatherDisplay:10.37,2013-05-02 01:31:00,
2013-05-01 21:36:00,55.0,39.6,30.42,North,0,0.0,0.0,56,0.00,CLR,,0.00,0.0,WeatherDisplay:10.37,2013-05-02 01:36:00,
2013-05-01 21:41:00,54.6,38.7,30.42,North,0,0.0,0.0,55,0.00,CLR,,0.00,0.0,WeatherDisplay:10.37,2013-05-02 01:41:00,
2013-05-01 21:46:00,54.3,40.3,30.42,North,0,0.0,0.0,59,0.00,CLR,,0.00,0.0,WeatherDisplay:10.37,2013-05-02 01:46:00,
2013-05-01 21:51:00,54.0,40.4,30.42,North,0,0.0,0.0,60,0.00,CLR,,0.00,0.0,WeatherDisplay:10.37,2013-05-02 01:51:00,
2013-05-01 21:56:00,53.7,39.7,30.43,North,0,0.0,0.0,59,0.00,CLR,,0.00,0.0,WeatherDisplay:10.37,2013-05-02 01:56:00,
2013-05-01 22:01:00,53.4,39.4,30.43,North,0,0.0,0.0,59,0.00,CLR,,0.00,0.0,WeatherDisplay:10.37,2013-05-02 02:01:00,
2013-05-01 22:06:00,53.1,39.6,30.43,North,0,0.0,0.0,60,0.00,CLR,,0.00,0.0,WeatherDisplay:10.37,2013-05-02 02:06:00,
2013-05-01 22:11:00,52.9,40.2,30.43,North,0,0.0,0.0,62,0.00,CLR,,0.00,0.0,WeatherDisplay:10.37,2013-05-02 02:11:00,
2013-05-01 22:16:00,52.7,40.9,30.43,North,0,0.0,0.0,64,0.00,CLR,,0.00,0.0,WeatherDisplay:10.37,2013-05-02 02:16:00,
2013-05-01 22:21:00,52.5,40.7,30.43,North,0,0.0,0.0,64,0.00,CLR,,0.00,0.0,WeatherDisplay:10.37,2013-05-02 02:21:00,
2013-05-01 22:26:00,52.4,41.0,30.43,North,0,0.0,0.0,65,0.00,CLR,,0.00,0.0,WeatherDisplay:10.37,2013-05-02 02:26:00,
2013-05-01 22:31:00,52.1,41.1,30.43,North,0,0.0,0.0,66,0.00,CLR,,0.00,0.0,WeatherDisplay:10.37,2013-05-02 02:31:00,
2013-05-01 22:36:00,51.9,41.3,30.43,North,0,0.0,0.0,67,0.00,CLR,,0.00,0.0,WeatherDisplay:10.37,2013-05-02 02:36:00,
2013-05-01 22:41:00,51.8,41.6,30.43,North,0,0.0,0.0,68,0.00,CLR,,0.00,0.0,WeatherDisplay:10.37,2013-05-02 02:41:00,
2013-05-01 22:46:00,51.6,41.4,30.43,North,0,0.0,0.0,68,0.00,CLR,,0.00,0.0,WeatherDisplay:10.37,2013-05-02 02:46:00,
2013-05-01 22:51:00,51.4,41.6,30.42,North,0,0.0,0.0,69,0.00,CLR,,0.00,0.0,WeatherDisplay:10.37,2013-05-02 02:51:00,
2013-05-01 22:56:00,51.3,41.5,30.42,North,0,0.0,0.0,69,0.00,CLR,,0.00,0.0,WeatherDisplay:10.37,2013-05-02 02:56:00,
2013-05-01 23:01:00,51.1,41.7,30.42,North,0,0.0,0.0,70,0.00,CLR,,0.00,0.0,WeatherDisplay:10.37,2013-05-02 03:01:00,
2013-05-01 23:06:00,50.9,41.8,30.42,North,0,0.0,0.0,71,0.00,CLR,,0.00,0.0,WeatherDisplay:10.37,2013-05-02 03:06:00,
2013-05-01 23:11:00,50.7,42.0,30.42,North,0,0.0,0.0,72,0.00,CLR,,0.00,0.0,WeatherDisplay:10.37,2013-05-02 03:11:00,
2013-05-01 23:16:00,50.5,41.8,30.42,North,0,0.0,0.0,72,0.00,CLR,,0.00,0.0,WeatherDisplay:10.37,2013-05-02 03:16:00,
2013-05-01 23:21:00,50.4,42.1,30.42,North,0,0.0,0.0,73,0.00,CLR,,0.00,0.0,WeatherDisplay:10.37,2013-05-02 03:21:00,
2013-05-01 23:26:00,50.2,41.9,30.42,North,0,0.0,0.0,73,0.00,CLR,,0.00,0.0,WeatherDisplay:10.37,2013-05-02 03:26:00,
2013-05-01 23:31:00,50.1,41.8,30.42,North,0,0.0,0.0,73,0.00,CLR,,0.00,0.0,WeatherDisplay:10.37,2013-05-02 03:31:00,
2013-05-01 23:36:00,50.0,41.7,30.42,North,0,0.0,0.0,73,0.00,CLR,,0.00,0.0,WeatherDisplay:10.37,2013-05-02 03:36:00,
2013-05-01 23:41:00,49.8,41.8,30.42,North,0,0.0,0.0,74,0.00,CLR,,0.00,0.0,WeatherDisplay:10.37,2013-05-02 03:41:00,
2013-05-01 23:46:00,49.7,42.1,30.42,North,0,0.0,0.0,75,0.00,CLR,,0.00,0.0,WeatherDisplay:10.37,2013-05-02 03:46:00,
2013-05-01 23:51:00,49.5,41.9,30.42,North,0,0.0,0.0,75,0.00,CLR,,0.00,0.0,WeatherDisplay:10.37,2013-05-02 03:51:00,
2013-05-01 23:56:00,49.4,42.1,30.41,North,0,0.0,0.0,76,0.00,CLR,,0.00,0.0,WeatherDisplay:10.37,2013-05-02 03:56:00,